Location: Poughquag
(41.6090°N, 73.6820°W)
Time: 07:36:06
(UTC-05:00)

STRAND 1 - Pass Details

Date: 04 December 2023
Orbit: 766 x 778 km, 98.4° (Epoch: 24 February)

Event Time Altitude Azimuth Distance (km) Brightness Sun altitude
Exits shadow 18:39:32 44° 14° (NNE) 1,057 ? -24.5°
Maximum altitude 18:41:13 90° 13° (NNE) 773 ? -24.8°
Drops below altitude 10° 18:46:18 10° 195° (SSW) 2,300 ? -25.8°
Sets 18:48:36 0° 195° (SSW) 3,224 ? -26.2°
